Change the Weather History Date:

Wednesday, May 8, 2013

  Actual Average (KMHS) Record (KMHS)
Temperature  
Mean Temperature 63 °F 52 °F  
Max Temperature 73 °F 67 °F 84 °F (2001)
Min Temperature 53 °F 38 °F 21 °F (1916)
Degree Days  
Heating Degree Days 2 13  
Month to date heating degree days 108  
Since 1 July heating degree days 5323  
Cooling Degree Days 0 0  
Month to date cooling degree days 0  
Year to date cooling degree days 0  
Growing Degree Days 13 (Base 50)    
Moisture  
Dew Point 52 °F    
Average Humidity 79    
Maximum Humidity 100    
Minimum Humidity 44    
Precipitation  
Precipitation 0.05 in 0.08 in 1.57 in (2005)
Month to date precipitation 0.58  
Year to date precipitation 23.76  
Sea Level Pressure  
Sea Level Pressure 30.13 in    
Wind  
Wind Speed 2 mph (ENE)    
Max Wind Speed 13 mph    
Max Gust Speed 16 mph    
Visibility 10 miles    
Events      
T = Trace of Precipitation, MM = Missing Value Source: NWS Daily Summary

Daily Weather History Graph

Daily Weather History Graph

Search for Another Location

Airport or City:

Trip Planner

Search our weather history database for the weather conditions in past years. The results will help you decide how hot, cold, wet, or windy it might be!

Date:

Astronomy

May. 08, 2013 Rise Set
Actual Time 5:59 AM PDT 8:15 PM PDT
Civil Twilight 5:29 AM PDT 8:45 PM PDT
Nautical Twilight 4:51 AM PDT 9:23 PM PDT
Astronomical Twilight 4:10 AM PDT 10:05 PM PDT
Moon 5:11 AM PDT (5/8) 7:18 PM PDT (5/8)
Length of Visible Light 15h 16m
Length of Day
14h 15m
Waning Crescent, 1% of the Moon is Illuminated
May 8
Waning Crescent
May 9
New
May 17
First Quarter
May 24
Full
May 31
Last Quarter

Hourly Weather History & Observations

Time (PDT) Temp. Dew Point Humidity Pressure Visibility Wind Dir Wind Speed Gust Speed Precip Events Conditions
12:10 AM 53.6 °F 53.6 °F 100% 30.09 in 10.0 mi Calm Calm - N/A   Overcast
12:30 AM 53.6 °F 53.6 °F 100% 30.08 in 10.0 mi Calm Calm - N/A   Overcast
12:50 AM 53.6 °F 51.8 °F 94% 30.08 in 10.0 mi Calm Calm - N/A   Overcast
1:10 AM 53.6 °F 51.8 °F 94% 30.08 in 10.0 mi Calm Calm - N/A   Overcast
1:30 AM 53.6 °F 51.8 °F 94% 30.08 in 10.0 mi West 3.5 mph - N/A   Overcast
1:50 AM 53.6 °F 51.8 °F 94% 30.08 in 10.0 mi Calm Calm - N/A   Overcast
2:10 AM 53.6 °F 51.8 °F 94% 30.08 in 10.0 mi Calm Calm - N/A   Overcast
2:30 AM 53.6 °F 53.6 °F 100% 30.09 in 10.0 mi Calm Calm - N/A   Overcast
2:50 AM 53.6 °F 53.6 °F 100% 30.09 in 10.0 mi Calm Calm - N/A   Overcast
3:10 AM 53.6 °F 51.8 °F 94% 30.09 in 10.0 mi Calm Calm - N/A   Overcast
3:30 AM 53.6 °F 50.0 °F 88% 30.09 in 10.0 mi Calm Calm - N/A   Overcast
3:50 AM 53.6 °F 51.8 °F 94% 30.10 in 10.0 mi Calm Calm - N/A   Overcast
4:10 AM 53.6 °F 51.8 °F 94% 30.10 in 10.0 mi Calm Calm - N/A   Overcast
4:30 AM 53.6 °F 50.0 °F 88% 30.10 in 10.0 mi Calm Calm - N/A   Overcast
4:50 AM 53.6 °F 51.8 °F 94% 30.10 in 10.0 mi Calm Calm - N/A   Overcast
5:10 AM 53.6 °F 50.0 °F 88% 30.10 in 10.0 mi Calm Calm - N/A   Overcast
5:30 AM 53.6 °F 51.8 °F 94% 30.11 in 10.0 mi Calm Calm - N/A   Overcast
5:50 AM 53.6 °F 51.8 °F 94% 30.11 in 10.0 mi Calm Calm - N/A   Overcast
6:10 AM 53.6 °F 50.0 °F 88% 30.12 in 10.0 mi Calm Calm - N/A   Overcast
6:30 AM 53.6 °F 50.0 °F 88% 30.12 in 10.0 mi Calm Calm - N/A   Overcast
6:50 AM 53.6 °F 51.8 °F 94% 30.12 in 10.0 mi Calm Calm - N/A   Overcast
7:10 AM 53.6 °F 51.8 °F 94% 30.13 in 10.0 mi Calm Calm - N/A   Overcast
7:30 AM 55.4 °F 51.8 °F 88% 30.13 in 10.0 mi Calm Calm - N/A   Overcast
7:50 AM 55.4 °F 50.0 °F 82% 30.13 in 10.0 mi Calm Calm - N/A   Overcast
8:10 AM 55.4 °F 51.8 °F 88% 30.14 in 10.0 mi Calm Calm - N/A   Overcast
8:30 AM 55.4 °F 51.8 °F 88% 30.14 in 10.0 mi Calm Calm - N/A   Overcast
8:50 AM 57.2 °F 50.0 °F 77% 30.15 in 10.0 mi Calm Calm - N/A   Overcast
9:10 AM 57.2 °F 50.0 °F 77% 30.15 in 10.0 mi Calm Calm - N/A   Overcast
9:30 AM 57.2 °F 50.0 °F 77% 30.16 in 10.0 mi Calm Calm - N/A   Overcast
9:50 AM 59.0 °F 51.8 °F 77% 30.15 in 10.0 mi ENE 3.5 mph - N/A   Overcast
10:10 AM 59.0 °F 51.8 °F 77% 30.16 in 10.0 mi East 3.5 mph - N/A   Overcast
10:30 AM 60.8 °F 50.0 °F 68% 30.16 in 10.0 mi ENE 3.5 mph - N/A   Mostly Cloudy
10:50 AM 62.6 °F 51.8 °F 68% 30.16 in 10.0 mi East 3.5 mph - N/A   Partly Cloudy
11:10 AM 62.6 °F 50.0 °F 63% 30.16 in 10.0 mi ENE 4.6 mph - N/A   Clear
11:30 AM 62.6 °F 50.0 °F 63% 30.15 in 10.0 mi ENE 4.6 mph - N/A   Clear
11:50 AM 64.4 °F 50.0 °F 59% 30.15 in 10.0 mi ENE 3.5 mph - N/A   Partly Cloudy
12:10 PM 64.4 °F 51.8 °F 64% 30.15 in 10.0 mi ENE 4.6 mph - N/A   Mostly Cloudy
12:30 PM 66.2 °F 51.8 °F 60% 30.14 in 10.0 mi ENE 4.6 mph - N/A   Overcast
12:50 PM 66.2 °F 51.8 °F 60% 30.14 in 10.0 mi ENE 4.6 mph - N/A   Overcast
1:10 PM 66.2 °F 50.0 °F 56% 30.13 in 10.0 mi SSE 4.6 mph - N/A   Overcast
1:30 PM 66.2 °F 50.0 °F 56% 30.13 in 10.0 mi East 3.5 mph - N/A   Mostly Cloudy
1:50 PM 68.0 °F 53.6 °F 60% 30.12 in 10.0 mi ENE 4.6 mph - N/A   Partly Cloudy
2:10 PM 69.8 °F 50.0 °F 49% 30.12 in 10.0 mi ENE 5.8 mph - N/A   Clear
2:30 PM 68.0 °F 50.0 °F 52% 30.11 in 10.0 mi ESE 4.6 mph - N/A   Clear
2:50 PM 71.6 °F 50.0 °F 46% 30.10 in 10.0 mi ESE 4.6 mph - N/A   Clear
3:10 PM 71.6 °F 50.0 °F 46% 30.09 in 10.0 mi SSE 5.8 mph - N/A   Clear
3:30 PM 71.6 °F 50.0 °F 46% 30.09 in 10.0 mi ESE 4.6 mph - N/A   Clear
3:50 PM 73.4 °F 50.0 °F 44% 30.07 in 10.0 mi SE 3.5 mph - N/A   Partly Cloudy
4:10 PM 71.6 °F 50.0 °F 46% 30.07 in 10.0 mi SE 4.6 mph - N/A   Partly Cloudy
4:30 PM 71.6 °F 51.8 °F 50% 30.07 in 10.0 mi NNE 4.6 mph - N/A   Mostly Cloudy
4:50 PM 68.0 °F 55.4 °F 64% 30.08 in 10.0 mi NNE 8.1 mph - N/A   Mostly Cloudy
5:10 PM 66.2 °F 53.6 °F 64% 30.09 in 10.0 mi NNE 4.6 mph - N/A   Mostly Cloudy
5:30 PM 62.6 °F 57.2 °F 82% 30.10 in 9.0 mi North 3.5 mph - N/A   Scattered Clouds
5:50 PM 62.6 °F 57.2 °F 82% 30.10 in 10.0 mi NE 6.9 mph - N/A   Scattered Clouds
6:10 PM 62.6 °F 55.4 °F 77% 30.12 in 10.0 mi NNE 5.8 mph - N/A   Overcast
6:30 PM 64.4 °F 50.0 °F 59% 30.11 in 10.0 mi NNW 8.1 mph - N/A   Overcast
6:50 PM 64.4 °F 48.2 °F 56% 30.13 in 10.0 mi NE 12.7 mph 16.1 mph N/A   Overcast
7:10 PM 62.6 °F 48.2 °F 59% 30.16 in 10.0 mi NE 10.4 mph 16.1 mph N/A   Overcast
7:30 PM 59.0 °F 51.8 °F 77% 30.16 in 10.0 mi East 4.6 mph - N/A   Overcast
7:50 PM 57.2 °F 51.8 °F 82% 30.16 in 10.0 mi ENE 6.9 mph - N/A   Mostly Cloudy
8:10 PM 55.4 °F 53.6 °F 94% 30.17 in 5.0 mi East 4.6 mph - 0.02 in   Overcast
8:30 PM 55.4 °F 53.6 °F 94% 30.17 in 9.0 mi SSE 4.6 mph - 0.05 in   Overcast
8:50 PM 55.4 °F 53.6 °F 94% 30.17 in 10.0 mi Calm Calm - 0.05 in   Mostly Cloudy
9:10 PM 55.4 °F 53.6 °F 94% 30.18 in 10.0 mi Calm Calm - N/A   Mostly Cloudy
9:30 PM 55.4 °F 53.6 °F 94% 30.18 in 10.0 mi Calm Calm - N/A   Scattered Clouds
9:50 PM 53.6 °F 53.6 °F 100% 30.18 in 10.0 mi ESE 3.5 mph - N/A   Partly Cloudy
10:10 PM 53.6 °F 53.6 °F 100% 30.19 in 10.0 mi SSW 3.5 mph - N/A   Partly Cloudy
10:30 PM 53.6 °F 53.6 °F 100% 30.19 in 10.0 mi SW 4.6 mph - N/A   Partly Cloudy
10:50 PM 53.6 °F 53.6 °F 100% 30.19 in 10.0 mi Calm Calm - N/A   Mostly Cloudy
11:10 PM 53.6 °F 51.8 °F 94% 30.19 in 10.0 mi Calm Calm - N/A   Mostly Cloudy
11:30 PM 53.6 °F 51.8 °F 94% 30.19 in 10.0 mi Calm Calm - N/A   Overcast
11:50 PM 53.6 °F 51.8 °F 94% 30.19 in 10.0 mi West 3.5 mph - N/A   Overcast